Lompoc, CA

8:02 AM PDT on April 29, 2017 (GMT -0700)
Lompoc

Weather History for KLPC - February, 2013

Change the Weather History Date:

Saturday, February 16, 2013

  Actual Average Record
Temperature  
Mean Temperature 60 °F -  
Max Temperature 78 °F 65 °F 80 °F (2007)
Min Temperature 39 °F 43 °F 28 °F (2006)
Degree Days  
Heating Degree Days 6    
Growing Degree Days 10 (Base 50)    
Moisture  
Dew Point 33 °F    
Average Humidity 49    
Maximum Humidity 75    
Minimum Humidity 11    
Precipitation  
Precipitation 0.00 in - - ()
Sea Level Pressure  
Sea Level Pressure 30.11 in    
Wind  
Wind Speed 7 mph (ESE)    
Max Wind Speed 13 mph    
Max Gust Speed -    
Visibility 10 miles    
Events      
Averages and records for this station are not official NWS values.
T = Trace of Precipitation, MM = Missing Value Source: NWS Daily Summary

Daily Weather History Graph

Daily Weather History Graph

Search for Another Location

Airport or City:

Trip Planner

Search our weather history database for the weather conditions in past years. The results will help you decide how hot, cold, wet, or windy it might be!

Date:

Astronomy

Feb. 16, 2013 Rise Set
Actual Time 6:45 AM PST 5:46 PM PST
Civil Twilight 6:20 AM PST 6:12 PM PST
Nautical Twilight 5:50 AM PST 6:41 PM PST
Astronomical Twilight 5:21 AM PST 7:10 PM PST
Moon 10:20 AM PST (2/16) No Moon Set
Length of Visible Light 11h 51m
Length of Day
11h 00m
Waxing Crescent, 40% of the Moon is Illuminated
Feb 16
Waxing Crescent
Feb 17
First Quarter
Feb 25
Full
Mar 4
Last Quarter
Mar 11
New

Hourly Weather History & Observations

Time (PST) Temp. Windchill Dew Point Humidity Pressure Visibility Wind Dir Wind Speed Gust Speed Precip Events Conditions
12:15 AM 44.6 °F 39.7 °F 33.8 °F 66% 30.19 in 10.0 mi East 9.2 mph - N/A   Clear
12:35 AM 46.4 °F 43.5 °F 33.8 °F 62% 30.18 in 10.0 mi ESE 5.8 mph - N/A   Clear
12:55 AM 44.6 °F 39.7 °F 33.8 °F 66% 30.18 in 10.0 mi East 9.2 mph - N/A   Clear
1:15 AM 44.6 °F 40.7 °F 33.8 °F 66% 30.18 in 10.0 mi East 6.9 mph - N/A   Clear
1:35 AM 44.6 °F 39.7 °F 33.8 °F 66% 30.18 in 10.0 mi East 9.2 mph - N/A   Clear
1:55 AM 44.6 °F 40.2 °F 33.8 °F 66% 30.17 in 10.0 mi East 8.1 mph - N/A   Clear
2:15 AM 44.6 °F 40.2 °F 33.8 °F 66% 30.16 in 10.0 mi East 8.1 mph - N/A   Clear
2:35 AM 44.6 °F 39.7 °F 33.8 °F 66% 30.16 in 10.0 mi East 9.2 mph - N/A   Clear
3:15 AM 44.6 °F 40.2 °F 33.8 °F 66% 30.15 in 10.0 mi East 8.1 mph - N/A   Clear
3:35 AM 44.6 °F 40.2 °F 33.8 °F 66% 30.14 in 10.0 mi East 8.1 mph - N/A   Clear
4:15 AM 46.4 °F 41.9 °F 33.8 °F 62% 30.15 in 10.0 mi East 9.2 mph - N/A   Clear
4:35 AM 42.8 °F 38.0 °F 33.8 °F 70% 30.15 in 10.0 mi East 8.1 mph - N/A   Clear
4:55 AM 42.8 °F 38.0 °F 33.8 °F 70% 30.14 in 10.0 mi East 8.1 mph - N/A   Clear
5:15 AM 42.8 °F 38.0 °F 33.8 °F 70% 30.15 in 10.0 mi East 8.1 mph - N/A   Clear
5:35 AM 42.8 °F 38.0 °F 33.8 °F 70% 30.15 in 10.0 mi East 8.1 mph - N/A   Clear
5:55 AM 42.8 °F 38.0 °F 33.8 °F 70% 30.15 in 10.0 mi East 8.1 mph - N/A   Clear
6:15 AM 42.8 °F 38.0 °F 33.8 °F 70% 30.15 in 10.0 mi East 8.1 mph - N/A   Clear
6:35 AM 42.8 °F 38.6 °F 33.8 °F 70% 30.15 in 10.0 mi East 6.9 mph - N/A   Clear
6:55 AM 42.8 °F 38.6 °F 32.0 °F 66% 30.16 in 10.0 mi East 6.9 mph - N/A   Clear
7:15 AM 44.6 °F 40.7 °F 33.8 °F 66% 30.16 in 10.0 mi East 6.9 mph - N/A   Clear
7:35 AM 46.4 °F 42.4 °F 33.8 °F 62% 30.16 in 10.0 mi East 8.1 mph - N/A   Clear
7:55 AM 48.2 °F - 32.0 °F 54% 30.16 in 10.0 mi East 8.1 mph - N/A   Clear
8:15 AM 48.2 °F - 32.0 °F 54% 30.16 in 10.0 mi ESE 10.4 mph - N/A   Clear
8:35 AM 51.8 °F - 32.0 °F 47% 30.17 in 10.0 mi ESE 6.9 mph - N/A   Clear
8:55 AM 53.6 °F - 32.0 °F 44% 30.17 in 10.0 mi ESE 6.9 mph - N/A   Clear
9:15 AM 55.4 °F - 33.8 °F 44% 30.17 in 10.0 mi ESE 6.9 mph - N/A   Clear
9:35 AM 57.2 °F - 33.8 °F 41% 30.17 in 10.0 mi ESE 5.8 mph - N/A   Clear
9:55 AM 59.0 °F - 33.8 °F 39% 30.16 in 10.0 mi SE 4.6 mph - N/A   Clear
10:15 AM 62.6 °F - 32.0 °F 32% 30.16 in 10.0 mi Calm Calm - N/A   Clear
10:35 AM 66.2 °F - 33.8 °F 30% 30.16 in 10.0 mi SE 4.6 mph - N/A   Clear
10:55 AM 69.8 °F - 30.2 °F 23% 30.15 in 10.0 mi ESE 5.8 mph - N/A   Clear
11:15 AM 73.4 °F - 30.2 °F 20% 30.14 in 9.0 mi SE 5.8 mph - N/A   Clear
11:35 AM 73.4 °F - 28.4 °F 19% 30.14 in 10.0 mi East 3.5 mph - N/A   Clear
11:55 AM 77.0 °F - 24.8 °F 14% 30.12 in 10.0 mi East 4.6 mph - N/A   Clear
12:15 PM 77.0 °F - 24.8 °F 14% 30.11 in 10.0 mi Calm Calm - N/A   Clear
12:35 PM 78.8 °F - 23.0 °F 13% 30.10 in 10.0 mi East 5.8 mph - N/A   Clear
12:55 PM 78.8 °F - 21.2 °F 12% 30.09 in 10.0 mi South 8.1 mph - N/A   Clear
1:15 PM 78.8 °F - 19.4 °F 11% 30.08 in 10.0 mi South 6.9 mph - N/A   Clear
1:35 PM 78.8 °F - 32.0 °F 18% 30.08 in 10.0 mi WNW 11.5 mph - N/A   Clear
1:55 PM 78.8 °F - 33.8 °F 20% 30.07 in 10.0 mi WNW 10.4 mph - N/A   Clear
2:15 PM 73.4 °F - 37.4 °F 27% 30.07 in 10.0 mi West 11.5 mph - N/A   Clear
2:35 PM 71.6 °F - 37.4 °F 29% 30.07 in 10.0 mi WSW 10.4 mph - N/A   Clear
2:55 PM 71.6 °F - 37.4 °F 29% 30.06 in 10.0 mi West 8.1 mph - N/A   Clear
3:15 PM 71.6 °F - 35.6 °F 27% 30.06 in 10.0 mi WSW 5.8 mph - N/A   Clear
3:35 PM 71.6 °F - 37.4 °F 29% 30.05 in 10.0 mi WSW 5.8 mph - N/A   Clear
3:55 PM 68.0 °F - 35.6 °F 30% 30.05 in 10.0 mi West 12.7 mph - N/A   Clear
4:15 PM 66.2 °F - 35.6 °F 32% 30.05 in 10.0 mi West 12.7 mph - N/A   Clear
4:35 PM 64.4 °F - 35.6 °F 34% 30.05 in 10.0 mi West 10.4 mph - N/A   Clear
4:55 PM 66.2 °F - 35.6 °F 32% 30.05 in 10.0 mi West 10.4 mph - N/A   Clear
5:15 PM 64.4 °F - 33.8 °F 32% 30.05 in 10.0 mi WNW 6.9 mph - N/A   Clear
5:35 PM 62.6 °F - 33.8 °F 34% 30.05 in 10.0 mi West 4.6 mph - N/A   Clear
5:55 PM 60.8 °F - 35.6 °F 39% 30.05 in 10.0 mi West 4.6 mph - N/A   Clear
6:15 PM 57.2 °F - 35.6 °F 44% 30.05 in 10.0 mi West 4.6 mph - N/A   Clear
6:35 PM 55.4 °F - 37.4 °F 51% 30.05 in 10.0 mi Calm Calm - N/A   Clear
6:55 PM 53.6 °F - 35.6 °F 51% 30.05 in 10.0 mi Calm Calm - N/A   Clear
7:15 PM 53.6 °F - 35.6 °F 51% 30.06 in 10.0 mi Calm Calm - N/A   Clear
7:35 PM 51.8 °F - 35.6 °F 54% 30.05 in 10.0 mi Calm Calm - N/A   Clear
7:55 PM 48.2 °F - 35.6 °F 62% 30.05 in 10.0 mi East 5.8 mph - N/A   Clear
8:15 PM 48.2 °F - 33.8 °F 58% 30.05 in 10.0 mi Calm Calm - N/A   Clear
8:35 PM 48.2 °F - 33.8 °F 58% 30.05 in 10.0 mi Calm Calm - N/A   Clear
8:55 PM 46.4 °F - 33.8 °F 62% 30.05 in 10.0 mi Calm Calm - N/A   Clear
9:15 PM 44.6 °F 41.4 °F 33.8 °F 66% 30.04 in 10.0 mi East 5.8 mph - N/A   Clear
9:35 PM 44.6 °F 42.2 °F 33.8 °F 66% 30.04 in 10.0 mi East 4.6 mph - N/A   Clear
9:55 PM 44.6 °F - 33.8 °F 66% 30.04 in 10.0 mi Calm Calm - N/A   Clear
10:15 PM 44.6 °F - 33.8 °F 66% 30.04 in 10.0 mi Calm Calm - N/A   Clear
10:35 PM 42.8 °F - 32.0 °F 66% 30.04 in 10.0 mi Calm Calm - N/A   Clear
10:55 PM 42.8 °F - 32.0 °F 66% 30.04 in 10.0 mi Calm Calm - N/A   Clear
11:15 PM 41.0 °F 38.0 °F 32.0 °F 70% 30.04 in 10.0 mi East 4.6 mph - N/A   Clear
11:35 PM 42.8 °F 40.1 °F 32.0 °F 66% 30.04 in 10.0 mi East 4.6 mph - N/A   Clear
11:55 PM 39.2 °F 35.9 °F 32.0 °F 75% 30.04 in 10.0 mi East 4.6 mph - N/A   Clear